Location: Alfortville
(48.8058°N, 2.4204°E)
Time: 04:22:34
(UTC+00:00)

Cosmos 1980 Rocket - Pass Details

Date: 29 May 2022
Orbit: 827 x 851 km, 71.0° (Epoch: 05 July)

Event Time Altitude Azimuth Distance (km) Brightness Sun altitude
Rises 23:06:10 0° 281° (W) 3,398 5.6 -18.9°
Reaches altitude 10° 23:10:32 10° 312° (NW) 2,473 5.4 -19.0°
Maximum altitude 23:12:32 12° 333° (NNW) 2,350 5.6 -19.0°
Drops below altitude 10° 23:14:33 10° 354° (N) 2,481 5.9 -19.1°
Sets 23:18:57 0° 26° (NNE) 3,424 6.3 -19.2°
